Location: Newark
(25.4800°N, 85.7200°E)
Time: 13:33:31
(UTC+00:00)

Explorer 11/Cluster Stage 4 - Pass Details

Date: 27 August 2019
Orbit: 467 x 1260 km, 28.8° (Epoch: 23 September)

Event Time Altitude Azimuth Distance (km) Brightness Sun altitude
Rises 01:54:33 0° 238° (WSW) 3,524 9.5 25.9°
Reaches altitude 10° 01:57:00 10° 235° (SW) 2,696 9.0 26.4°
Maximum altitude 02:03:36 60° 156° (SSE) 1,246 8.2 27.9°
Drops below altitude 10° 02:11:25 10° 79° (E) 3,166 11.2 29.7°
Sets 02:14:30 0° 76° (ENE) 4,177 11.3 30.4°
